| time (UTC) | temp F | wind direction | speed knots | gust knots | rain 1hr in | rain 24hr in | rain mn in | humidity % | barometer mb |
| 20260505214136 | 81 | 23 | 6.1 | 7.0 | 0.00 | 0.00 | 0.00 | 28 | 1009.7 |
| 20260505213634 | 82 | 23 | 3.5 | 6.1 | 0.00 | 0.00 | 0.00 | 29 | 1009.6 |
| 20260505213131 | 81 | 23 | 1.7 | 2.6 | 0.00 | 0.00 | 0.00 | 30 | 1009.7 |
| 20260505212627 | 81 | 23 | 6.1 | 7.8 | 0.00 | 0.00 | 0.00 | 29 | 1010.0 |
| 20260505212125 | 82 | 23 | 2.6 | 5.2 | 0.00 | 0.00 | 0.00 | 29 | 1009.8 |
| 20260505211621 | 82 | 23 | 7.8 | 9.6 | 0.00 | 0.00 | 0.00 | 29 | 1009.9 |
| 20260505211118 | 82 | 22 | 5.2 | 7.0 | 0.00 | 0.00 | 0.00 | 30 | 1009.8 |
| 20260505210614 | 82 | 23 | 7.0 | 9.6 | 0.00 | 0.00 | 0.00 | 29 | 1009.6 |
| 20260505210111 | 82 | 22 | 0.9 | 1.7 | 0.00 | 0.00 | 0.00 | 30 | 1009.6 |
| 20260505205609 | 83 | 22 | 1.7 | 2.6 | 0.00 | 0.00 | 0.00 | 29 | 1009.5 |
| 20260505205107 | 83 | 22 | 6.1 | 11.3 | 0.00 | 0.00 | 0.00 | 29 | 1009.6 |
| 20260505204604 | 83 | 22 | 3.5 | 3.5 | 0.00 | 0.00 | 0.00 | 29 | 1009.7 |
| 20260505204102 | 83 | 22 | 4.3 | 7.0 | 0.00 | 0.00 | 0.00 | 29 | 1009.5 |
| 20260505203558 | 84 | 22 | 7.8 | 8.7 | 0.00 | 0.00 | 0.00 | 28 | 1009.3 |
| 20260505203055 | 84 | 22 | 1.7 | 1.7 | 0.00 | 0.00 | 0.00 | 29 | 1009.4 |
| 20260505202550 | 84 | 22 | 5.2 | 7.8 | 0.00 | 0.00 | 0.00 | 28 | 1009.5 |
| 20260505202047 | 84 | 22 | 3.5 | 5.2 | 0.00 | 0.00 | 0.00 | 29 | 1009.5 |
| 20260505201543 | 84 | 22 | 1.7 | 1.7 | 0.00 | 0.00 | 0.00 | 29 | 1009.6 |
| 20260505201042 | 84 | 22 | 1.7 | 1.7 | 0.00 | 0.00 | 0.00 | 29 | 1009.6 |
| 20260505200540 | 83 | 22 | 1.7 | 2.6 | 0.00 | 0.00 | 0.00 | 29 | 1009.5 |
| 20260505200036 | 84 | 22 | 4.3 | 7.0 | 0.00 | 0.00 | 0.00 | 28 | 1009.7 |
| 20260505195531 | 83 | 22 | 1.7 | 2.6 | 0.00 | 0.00 | 0.00 | 28 | 1009.8 |
| 20260505195029 | 84 | 22 | 7.8 | 11.3 | 0.00 | 0.00 | 0.00 | 27 | 1009.9 |
| 20260505194526 | 84 | 22 | 3.5 | 5.2 | 0.00 | 0.00 | 0.00 | 28 | 1009.9 |
| 20260505194021 | 83 | 22 | 6.1 | 7.8 | 0.00 | 0.00 | 0.00 | 28 | 1009.8 |
| 20260505193519 | 83 | 22 | 1.7 | 1.7 | 0.00 | 0.00 | 0.00 | 28 | 1010.2 |
| 20260505193016 | 83 | 22 | 7.8 | 13.0 | 0.00 | 0.00 | 0.00 | 27 | 1010.1 |
| 20260505192515 | 84 | 22 | 6.1 | 11.3 | 0.00 | 0.00 | 0.00 | 26 | 1010.1 |
| 20260505192012 | 83 | 22 | 0.9 | 0.9 | 0.00 | 0.00 | 0.00 | 30 | 1010.0 |
| 20260505191510 | 84 | 22 | 2.6 | 3.5 | 0.00 | 0.00 | 0.00 | 28 | 1010.3 |
| 20260505191009 | 83 | 22 | 2.6 | 3.5 | 0.00 | 0.00 | 0.00 | 29 | 1010.4 |
| 20260505190503 | 83 | 22 | 10.4 | 15.6 | 0.00 | 0.00 | 0.00 | 28 | 1010.4 |
| 20260505185958 | 83 | 22 | 3.5 | 6.1 | 0.00 | 0.00 | 0.00 | 29 | 1010.4 |
| 20260505185455 | 84 | 22 | 2.6 | 2.6 | 0.00 | 0.00 | 0.00 | 29 | 1010.3 |
| 20260505184951 | 84 | 22 | 3.5 | 6.1 | 0.00 | 0.00 | 0.00 | 29 | 1010.6 |
| 20260505184448 | 83 | 22 | 5.2 | 7.0 | 0.00 | 0.00 | 0.00 | 29 | 1010.5 |
| 20260505183945 | 84 | 22 | 1.7 | 3.5 | 0.00 | 0.00 | 0.00 | 29 | 1010.6 |
| 20260505183442 | 84 | 22 | 1.7 | 2.6 | 0.00 | 0.00 | 0.00 | 30 | 1010.7 |
| 20260505182938 | 83 | 22 | 3.5 | 5.2 | 0.00 | 0.00 | 0.00 | 31 | 1010.8 |
| 20260505182436 | 82 | 22 | 7.0 | 9.6 | 0.00 | 0.00 | 0.00 | 30 | 1010.8 |
| 20260505181932 | 82 | 22 | 4.3 | 7.0 | 0.00 | 0.00 | 0.00 | 30 | 1011.1 |
| 20260505181429 | 83 | 22 | 8.7 | 9.6 | 0.00 | 0.00 | 0.00 | 30 | 1011.0 |
| 20260505180926 | 82 | 22 | 2.6 | 3.5 | 0.00 | 0.00 | 0.00 | 30 | 1011.1 |
| 20260505180422 | 83 | 22 | 5.2 | 8.7 | 0.00 | 0.00 | 0.00 | 29 | 1011.2 |
| 20260505175919 | 82 | 23 | 6.1 | 7.8 | 0.00 | 0.00 | 0.00 | 31 | 1011.3 |
| 20260505175415 | 83 | 22 | 7.0 | 8.7 | 0.00 | 0.00 | 0.00 | 29 | 1011.2 |
| 20260505174912 | 82 | 22 | 7.0 | 8.7 | 0.00 | 0.00 | 0.00 | 32 | 1011.2 |
| 20260505174410 | 82 | 22 | 1.7 | 2.6 | 0.00 | 0.00 | 0.00 | 34 | 1011.2 |
| 20260505173906 | 81 | 23 | 3.5 | 5.2 | 0.00 | 0.00 | 0.00 | 34 | 1011.4 |
| 20260505173402 | 81 | 23 | 3.5 | 3.5 | 0.00 | 0.00 | 0.00 | 36 | 1011.2 |
| 20260505172859 | 81 | 23 | 0.9 | 0.9 | 0.00 | 0.00 | 0.00 | 37 | 1011.5 |
| 20260505172357 | 81 | 23 | 2.6 | 3.5 | 0.00 | 0.00 | 0.00 | 37 | 1011.5 |
| 20260505171856 | 80 | 23 | 1.7 | 3.5 | 0.00 | 0.00 | 0.00 | 37 | 1011.4 |
| 20260505171353 | 81 | 22 | 0.9 | 1.7 | 0.00 | 0.00 | 0.00 | 37 | 1011.7 |
| 20260505170850 | 82 | 23 | 4.3 | 6.1 | 0.00 | 0.00 | 0.00 | 36 | 1011.6 |
| 20260505170347 | 82 | 23 | 2.6 | 3.5 | 0.00 | 0.00 | 0.00 | 36 | 1012.0 |
| 20260505165842 | 81 | 23 | 3.5 | 3.5 | 0.00 | 0.00 | 0.00 | 37 | 1011.9 |
| 20260505165338 | 81 | 23 | 3.5 | 3.5 | 0.00 | 0.00 | 0.00 | 37 | 1011.8 |
| 20260505164834 | 80 | 23 | 2.6 | 3.5 | 0.00 | 0.00 | 0.00 | 36 | 1012.0 |
| 20260505164331 | 80 | 23 | 1.7 | 2.6 | 0.00 | 0.00 | 0.00 | 39 | 1011.9 |
| 20260505163829 | 80 | 23 | 1.7 | 1.7 | 0.00 | 0.00 | 0.00 | 41 | 1012.1 |
| 20260505163327 | 80 | 23 | 3.5 | 3.5 | 0.00 | 0.00 | 0.00 | 36 | 1012.1 |
| 20260505162825 | 80 | 23 | 2.6 | 2.6 | 0.00 | 0.00 | 0.00 | 38 | 1012.1 |
| 20260505162321 | 79 | 23 | 6.1 | 7.0 | 0.00 | 0.00 | 0.00 | 38 | 1012.3 |
| 20260505161819 | 79 | 23 | 3.5 | 5.2 | 0.00 | 0.00 | 0.00 | 38 | 1012.4 |
| 20260505161316 | 79 | 23 | 3.5 | 5.2 | 0.00 | 0.00 | 0.00 | 37 | 1012.6 |
| 20260505160813 | 80 | 23 | 1.7 | 1.7 | 0.00 | 0.00 | 0.00 | 36 | 1012.6 |
| 20260505160311 | 79 | 23 | 3.5 | 5.2 | 0.00 | 0.00 | 0.00 | 37 | 1012.6 |
| 20260505153250 | 78 | 23 | 2.6 | 3.5 | 0.00 | 0.00 | 0.00 | 40 | 1012.7 |
| 20260505152748 | 77 | 23 | 1.7 | 2.6 | 0.00 | 0.00 | 0.00 | 41 | 1012.8 |
| 20260505152244 | 77 | 23 | 1.7 | 2.6 | 0.00 | 0.00 | 0.00 | 41 | 1012.5 |
| 20260505151743 | 77 | 23 | 2.6 | 2.6 | 0.00 | 0.00 | 0.00 | 42 | 1012.7 |
| 20260505151241 | 77 | 23 | 2.6 | 6.1 | 0.00 | 0.00 | 0.00 | 42 | 1012.7 |
| 20260505150738 | 77 | 23 | 0.9 | 1.7 | 0.00 | 0.00 | 0.00 | 42 | 1012.6 |
| 20260505150236 | 76 | 23 | 1.7 | 1.7 | 0.00 | 0.00 | 0.00 | 43 | 1012.8 |
| 20260505140206 | 73 | 23 | 1.7 | 2.6 | 0.00 | 0.00 | 0.00 | 46 | 1012.8 |
| 20260505130129 | 69 | 23 | 0.9 | 0.9 | 0.00 | 0.00 | 0.00 | 50 | 1013.2 |
| 20260505124619 | 67 | 23 | 0.9 | 1.7 | 0.00 | 0.00 | 0.00 | 52 | 1013.4 |
| 20260505124115 | 67 | 23 | 1.7 | 1.7 | 0.00 | 0.00 | 0.00 | 52 | 1013.4 |
| 20260505123611 | 67 | 23 | 2.6 | 3.5 | 0.00 | 0.00 | 0.00 | 52 | 1013.2 |
| 20260505123108 | 66 | 23 | 2.6 | 2.6 | 0.00 | 0.00 | 0.00 | 52 | 1013.3 |
| 20260505122605 | 66 | 23 | 1.7 | 1.7 | 0.00 | 0.00 | 0.00 | 54 | 1013.2 |
| 20260505122102 | 66 | 23 | 1.7 | 2.6 | 0.00 | 0.00 | 0.00 | 53 | 1013.2 |
| 20260505121558 | 66 | 23 | 1.7 | 1.7 | 0.00 | 0.00 | 0.00 | 54 | 1013.3 |
| 20260505121055 | 65 | 23 | 0.0 | 0.9 | 0.00 | 0.00 | 0.00 | 55 | 1013.1 |
| 20260505120551 | 64 | 23 | 0.0 | 0.9 | 0.00 | 0.00 | 0.00 | 58 | 1013.0 |
| 20260505120047 | 62 | 23 | 0.9 | 1.7 | 0.00 | 0.00 | 0.00 | 62 | 1013.1 |
| 20260505115542 | 60 | 23 | 0.0 | 0.9 | 0.00 | 0.00 | 0.00 | 65 | 1013.0 |
| 20260505115040 | 59 | 24 | 0.0 | 0.0 | 0.00 | 0.00 | 0.00 | 67 | 1013.1 |
| 20260505114536 | 58 | 23 | 0.0 | 0.0 | 0.00 | 0.00 | 0.00 | 69 | 1012.9 |
| 20260505114032 | 58 | 23 | 0.0 | 0.0 | 0.00 | 0.00 | 0.00 | 71 | 1012.8 |
| 20260505113529 | 58 | 23 | 0.0 | 0.0 | 0.00 | 0.00 | 0.00 | 71 | 1012.8 |
| 20260505113026 | 57 | 23 | 0.0 | 0.0 | 0.00 | 0.00 | 0.00 | 70 | 1012.8 |
| 20260505112522 | 57 | 23 | 0.0 | 0.0 | 0.00 | 0.00 | 0.00 | 71 | 1013.0 |
| 20260505112021 | 56 | 23 | 0.0 | 0.0 | 0.00 | 0.00 | 0.00 | 73 | 1012.7 |
| 20260505111520 | 56 | 23 | 0.0 | 0.0 | 0.00 | 0.00 | 0.00 | 74 | 1012.9 |
| 20260505111016 | 56 | 23 | 0.0 | 0.0 | 0.00 | 0.00 | 0.00 | 75 | 1012.5 |
| 20260505110513 | 55 | 23 | 0.0 | 0.0 | 0.00 | 0.00 | 0.00 | 76 | 1012.6 |
| 20260505101945 | 52 | 24 | 0.0 | 0.0 | 0.00 | 0.00 | 0.00 | 82 | 1012.1 |
| 20260505101438 | 52 | 24 | 0.0 | 0.0 | 0.00 | 0.00 | 0.00 | 82 | 1012.3 |
| 20260505100934 | 52 | 23 | 0.0 | 0.0 | 0.00 | 0.00 | 0.00 | 83 | 1012.0 |
| 20260505100432 | 52 | 24 | 0.0 | 0.0 | 0.00 | 0.00 | 0.00 | 83 | 1012.1 |
| 20260505095927 | 52 | 23 | 0.0 | 0.0 | 0.00 | 0.00 | 0.00 | 83 | 1011.9 |
| 20260505095424 | 52 | 23 | 0.0 | 0.0 | 0.00 | 0.00 | 0.00 | 83 | 1011.9 |
| 20260505094920 | 52 | 24 | 0.0 | 0.0 | 0.00 | 0.00 | 0.00 | 82 | 1011.9 |
| 20260505094418 | 52 | 23 | 0.0 | 0.0 | 0.00 | 0.00 | 0.00 | 83 | 1011.9 |
| 20260505093914 | 52 | 24 | 0.0 | 0.0 | 0.00 | 0.00 | 0.00 | 83 | 1011.9 |
| 20260505093411 | 52 | 23 | 0.0 | 0.0 | 0.00 | 0.00 | 0.00 | 83 | 1011.7 |
| 20260505092908 | 52 | 24 | 0.0 | 0.0 | 0.00 | 0.00 | 0.00 | 82 | 1011.7 |
| 20260505092406 | 52 | 23 | 0.0 | 0.0 | 0.00 | 0.00 | 0.00 | 81 | 1011.7 |
| 20260505091903 | 52 | 24 | 0.0 | 0.0 | 0.00 | 0.00 | 0.00 | 81 | 1011.7 |
| 20260505091401 | 52 | 24 | 0.0 | 0.0 | 0.00 | 0.00 | 0.00 | 81 | 1011.7 |
| 20260505090858 | 53 | 24 | 0.0 | 0.0 | 0.00 | 0.00 | 0.00 | 81 | 1011.5 |
| 20260505090356 | 53 | 23 | 0.0 | 0.0 | 0.00 | 0.00 | 0.00 | 80 | 1011.8 |
| 20260505085853 | 53 | 24 | 0.0 | 0.0 | 0.00 | 0.00 | 0.00 | 80 | 1011.9 |
| 20260505085351 | 52 | 24 | 0.0 | 0.0 | 0.00 | 0.00 | 0.00 | 82 | 1011.8 |
| 20260505084849 | 52 | 24 | 0.0 | 0.0 | 0.00 | 0.00 | 0.00 | 82 | 1012.0 |
| 20260505084347 | 52 | 23 | 0.0 | 0.0 | 0.00 | 0.00 | 0.00 | 82 | 1011.8 |
| 20260505083844 | 52 | 23 | 0.0 | 0.0 | 0.00 | 0.00 | 0.00 | 82 | 1011.9 |
| 20260505083342 | 52 | 23 | 0.0 | 0.0 | 0.00 | 0.00 | 0.00 | 82 | 1011.8 |
| 20260505082838 | 52 | 24 | 0.0 | 0.0 | 0.00 | 0.00 | 0.00 | 81 | 1011.8 |
| 20260505082334 | 52 | 23 | 0.0 | 0.0 | 0.00 | 0.00 | 0.00 | 81 | 1011.7 |
| 20260505081831 | 52 | 23 | 0.0 | 0.0 | 0.00 | 0.00 | 0.00 | 81 | 1011.8 |
| 20260505081327 | 52 | 24 | 0.0 | 0.0 | 0.00 | 0.00 | 0.00 | 81 | 1011.6 |
| 20260505080825 | 52 | 23 | 0.0 | 0.0 | 0.00 | 0.00 | 0.00 | 82 | 1011.9 |
| 20260505080320 | 52 | 23 | 0.0 | 0.0 | 0.00 | 0.00 | 0.00 | 82 | 1011.9 |
| 20260505075816 | 53 | 24 | 0.0 | 0.0 | 0.00 | 0.00 | 0.00 | 81 | 1011.6 |
| 20260505075313 | 53 | 24 | 0.0 | 0.0 | 0.00 | 0.00 | 0.00 | 81 | 1011.8 |
| 20260505074810 | 53 | 24 | 0.0 | 0.0 | 0.00 | 0.00 | 0.00 | 81 | 1011.8 |
| 20260505074307 | 53 | 24 | 0.0 | 0.0 | 0.00 | 0.00 | 0.00 | 81 | 1011.7 |
| 20260505073805 | 53 | 23 | 0.0 | 0.0 | 0.00 | 0.00 | 0.00 | 81 | 1011.5 |
| 20260505073303 | 53 | 24 | 0.0 | 0.0 | 0.00 | 0.00 | 0.00 | 81 | 1011.6 |
| 20260505072759 | 53 | 24 | 0.0 | 0.0 | 0.00 | 0.00 | 0.00 | 81 | 1011.4 |
| 20260505072255 | 53 | 23 | 0.9 | 0.9 | 0.00 | 0.00 | 0.00 | 82 | 1011.4 |
| 20260505071751 | 53 | 24 | 0.0 | 0.0 | 0.00 | 0.00 | 0.00 | 82 | 1011.6 |
| 20260505071248 | 53 | 23 | 0.0 | 0.0 | 0.00 | 0.00 | 0.00 | 81 | 1011.4 |
| 20260505070746 | 53 | 23 | 0.0 | 0.0 | 0.00 | 0.00 | 0.00 | 81 | 1011.5 |
| 20260505070242 | 53 | 23 | 0.0 | 0.0 | 0.00 | 0.00 | 0.00 | 81 | 1011.4 |
| 20260505065737 | 53 | 24 | 0.0 | 0.0 | 0.00 | 0.00 | 0.00 | 80 | 1011.3 |
| 20260505065235 | 53 | 23 | 0.0 | 0.0 | 0.00 | 0.00 | 0.00 | 80 | 1011.3 |
| 20260505064732 | 53 | 23 | 0.0 | 0.0 | 0.00 | 0.00 | 0.00 | 80 | 1011.4 |
| 20260505064229 | 53 | 24 | 0.0 | 0.0 | 0.00 | 0.00 | 0.00 | 80 | 1011.5 |
| 20260505063727 | 53 | 24 | 0.0 | 0.0 | 0.00 | 0.00 | 0.00 | 79 | 1011.3 |
| 20260505063223 | 53 | 24 | 0.0 | 0.0 | 0.00 | 0.00 | 0.00 | 79 | 1011.6 |
| 20260505062719 | 53 | 24 | 0.0 | 0.0 | 0.00 | 0.00 | 0.00 | 78 | 1011.6 |
| 20260505062217 | 53 | 24 | 0.0 | 0.0 | 0.00 | 0.00 | 0.00 | 78 | 1011.4 |
| 20260505061714 | 53 | 24 | 0.0 | 0.0 | 0.00 | 0.00 | 0.00 | 78 | 1011.4 |
| 20260505061212 | 54 | 23 | 0.0 | 0.0 | 0.00 | 0.00 | 0.00 | 78 | 1011.6 |
| 20260505060709 | 54 | 24 | 0.0 | 0.0 | 0.00 | 0.00 | 0.00 | 78 | 1011.5 |
| 20260505060205 | 54 | 24 | 0.0 | 0.0 | 0.00 | 0.00 | 0.00 | 77 | 1011.4 |
| 20260505055701 | 54 | 24 | 0.0 | 0.0 | 0.00 | 0.00 | 0.00 | 77 | 1011.5 |
| 20260505055158 | 54 | 24 | 0.0 | 0.9 | 0.00 | 0.00 | 0.00 | 77 | 1011.3 |
| 20260505054655 | 54 | 24 | 0.0 | 0.0 | 0.00 | 0.00 | 0.00 | 77 | 1011.5 |
| 20260505054153 | 54 | 23 | 0.0 | 0.0 | 0.00 | 0.00 | 0.00 | 77 | 1011.3 |
| 20260505053650 | 54 | 23 | 0.0 | 0.0 | 0.00 | 0.00 | 0.00 | 76 | 1011.6 |
| 20260505053147 | 55 | 24 | 0.0 | 0.0 | 0.00 | 0.00 | 0.00 | 76 | 1011.5 |
| 20260505052644 | 55 | 23 | 0.0 | 0.0 | 0.00 | 0.00 | 0.00 | 75 | 1011.6 |
| 20260505052141 | 55 | 23 | 0.0 | 0.0 | 0.00 | 0.00 | 0.00 | 74 | 1011.7 |
| 20260505051637 | 55 | 24 | 0.0 | 0.0 | 0.00 | 0.00 | 0.00 | 74 | 1011.7 |
| 20260505051136 | 55 | 24 | 0.0 | 0.0 | 0.00 | 0.00 | 0.00 | 74 | 1011.7 |
| 20260505050633 | 56 | 23 | 0.0 | 0.0 | 0.00 | 0.00 | 0.00 | 73 | 1011.5 |
| 20260505050132 | 56 | 23 | 0.0 | 0.0 | 0.00 | 0.00 | 0.00 | 73 | 1011.7 |
| 20260505041601 | 56 | 23 | 0.0 | 0.0 | 0.00 | 0.00 | 0.00 | 70 | 1011.6 |
| 20260505041059 | 57 | 23 | 0.0 | 0.0 | 0.00 | 0.00 | 0.00 | 70 | 1011.6 |
| 20260505040556 | 57 | 23 | 0.0 | 0.0 | 0.00 | 0.00 | 0.00 | 70 | 1011.7 |
| 20260505040053 | 57 | 23 | 0.0 | 0.0 | 0.00 | 0.00 | 0.00 | 70 | 1011.5 |
| 20260505035549 | 57 | 23 | 0.0 | 0.9 | 0.00 | 0.00 | 0.00 | 70 | 1011.6 |
| 20260505035046 | 57 | 23 | 0.0 | 0.0 | 0.00 | 0.00 | 0.00 | 69 | 1011.3 |
| 20260505034542 | 57 | 23 | 0.0 | 0.9 | 0.00 | 0.00 | 0.00 | 69 | 1011.5 |
| 20260505034039 | 57 | 23 | 0.0 | 0.0 | 0.00 | 0.00 | 0.00 | 69 | 1011.5 |
| 20260505033536 | 57 | 23 | 0.0 | 0.0 | 0.00 | 0.00 | 0.00 | 68 | 1011.5 |
| 20260505033034 | 57 | 23 | 0.0 | 0.0 | 0.00 | 0.00 | 0.00 | 68 | 1011.6 |
| 20260505032532 | 58 | 23 | 0.0 | 0.0 | 0.00 | 0.00 | 0.00 | 68 | 1011.7 |
| 20260505032028 | 58 | 23 | 0.0 | 0.0 | 0.00 | 0.00 | 0.00 | 68 | 1011.5 |
| 20260505031526 | 58 | 23 | 0.0 | 0.0 | 0.00 | 0.00 | 0.00 | 67 | 1011.4 |
| 20260505031022 | 58 | 23 | 0.0 | 0.0 | 0.00 | 0.00 | 0.00 | 67 | 1011.5 |
| 20260505030519 | 58 | 23 | 0.0 | 0.0 | 0.00 | 0.00 | 0.00 | 66 | 1011.4 |
| 20260505030015 | 58 | 23 | 0.0 | 0.0 | 0.00 | 0.00 | 0.00 | 66 | 1011.5 |
| 20260505025511 | 58 | 23 | 0.0 | 0.0 | 0.00 | 0.00 | 0.00 | 66 | 1011.4 |
| 20260505025010 | 59 | 23 | 0.0 | 0.0 | 0.00 | 0.00 | 0.00 | 65 | 1011.3 |
| 20260505024506 | 59 | 23 | 0.0 | 0.0 | 0.00 | 0.00 | 0.00 | 64 | 1011.3 |
| 20260505024004 | 59 | 23 | 0.0 | 0.0 | 0.00 | 0.00 | 0.00 | 64 | 1011.3 |
| 20260505023500 | 59 | 23 | 0.0 | 0.0 | 0.00 | 0.00 | 0.00 | 63 | 1011.5 |
| 20260505022958 | 60 | 23 | 0.0 | 0.0 | 0.00 | 0.00 | 0.00 | 62 | 1011.4 |
| 20260505022455 | 60 | 23 | 0.0 | 0.0 | 0.00 | 0.00 | 0.00 | 62 | 1011.4 |
| 20260505021952 | 60 | 23 | 0.0 | 0.0 | 0.00 | 0.00 | 0.00 | 62 | 1011.2 |
| 20260505021449 | 60 | 23 | 0.0 | 0.0 | 0.00 | 0.00 | 0.00 | 62 | 1011.5 |
| 20260505020944 | 60 | 23 | 0.0 | 0.0 | 0.00 | 0.00 | 0.00 | 61 | 1011.2 |
| 20260505020440 | 60 | 23 | 0.0 | 0.0 | 0.00 | 0.00 | 0.00 | 60 | 1011.2 |
| 20260505015937 | 61 | 23 | 0.0 | 0.0 | 0.00 | 0.00 | 0.00 | 59 | 1011.2 |
| 20260505015434 | 61 | 23 | 0.0 | 0.0 | 0.00 | 0.00 | 0.00 | 59 | 1011.2 |
| 20260505014931 | 62 | 23 | 0.0 | 0.0 | 0.00 | 0.00 | 0.00 | 58 | 1011.0 |
| 20260505014428 | 62 | 23 | 0.0 | 0.0 | 0.00 | 0.00 | 0.00 | 58 | 1011.0 |
| 20260505013925 | 62 | 23 | 0.0 | 0.0 | 0.00 | 0.00 | 0.00 | 58 | 1011.2 |
| 20260505013422 | 62 | 23 | 0.0 | 0.0 | 0.00 | 0.00 | 0.00 | 58 | 1010.9 |
| 20260505012920 | 62 | 23 | 0.0 | 0.0 | 0.00 | 0.00 | 0.00 | 55 | 1010.9 |
| 20260505012418 | 63 | 23 | 0.0 | 0.0 | 0.00 | 0.00 | 0.00 | 55 | 1010.9 |
| 20260505011914 | 64 | 23 | 0.0 | 0.0 | 0.00 | 0.00 | 0.00 | 53 | 1010.7 |
| 20260505011410 | 64 | 23 | 0.0 | 0.0 | 0.00 | 0.00 | 0.00 | 53 | 1011.0 |
| 20260505010907 | 65 | 23 | 0.0 | 0.0 | 0.00 | 0.00 | 0.00 | 52 | 1010.8 |
| 20260505010403 | 65 | 23 | 0.0 | 0.9 | 0.00 | 0.00 | 0.00 | 50 | 1010.7 |
| 20260505005859 | 66 | 23 | 0.0 | 0.0 | 0.00 | 0.00 | 0.00 | 49 | 1010.7 |
| 20260505005356 | 65 | 23 | 1.7 | 1.7 | 0.00 | 0.00 | 0.00 | 49 | 1010.7 |
| 20260505004854 | 66 | 23 | 0.0 | 0.0 | 0.00 | 0.00 | 0.00 | 49 | 1010.6 |
| 20260505004350 | 67 | 23 | 0.9 | 0.9 | 0.00 | 0.00 | 0.00 | 48 | 1010.5 |
| 20260505003847 | 68 | 23 | 0.0 | 0.9 | 0.00 | 0.00 | 0.00 | 47 | 1010.4 |
| 20260505003344 | 68 | 23 | 0.0 | 0.0 | 0.00 | 0.00 | 0.00 | 44 | 1010.5 |
| 20260505002840 | 68 | 23 | 0.9 | 1.7 | 0.00 | 0.00 | 0.00 | 44 | 1010.4 |
| 20260505002337 | 69 | 23 | 0.0 | 0.9 | 0.00 | 0.00 | 0.00 | 44 | 1010.4 |
| 20260505001836 | 69 | 23 | 0.9 | 1.7 | 0.00 | 0.00 | 0.00 | 41 | 1010.5 |
| 20260505001332 | 70 | 23 | 1.7 | 2.6 | 0.00 | 0.00 | 0.00 | 41 | 1010.4 |
| 20260505000829 | 70 | 23 | 1.7 | 1.7 | 0.00 | 0.00 | 0.00 | 42 | 1010.5 |
| 20260505000327 | 70 | 23 | 0.9 | 1.7 | 0.00 | 0.00 | 0.00 | 41 | 1010.4 |
| 20260504235824 | 70 | 23 | 0.0 | 0.0 | 0.00 | 0.00 | 0.00 | 42 | 1010.4 |
| 20260504235321 | 71 | 23 | 1.7 | 3.5 | 0.00 | 0.00 | 0.00 | 40 | 1010.3 |
| 20260504234817 | 71 | 23 | 1.7 | 1.7 | 0.00 | 0.00 | 0.00 | 40 | 1010.4 |
| 20260504234315 | 71 | 23 | 0.9 | 1.7 | 0.00 | 0.00 | 0.00 | 40 | 1010.3 |
| 20260504233811 | 71 | 23 | 0.9 | 0.9 | 0.00 | 0.00 | 0.00 | 39 | 1010.2 |
| 20260504233307 | 71 | 23 | 0.9 | 0.9 | 0.00 | 0.00 | 0.00 | 39 | 1010.5 |
| 20260504232804 | 72 | 23 | 0.0 | 0.0 | 0.00 | 0.00 | 0.00 | 39 | 1010.3 |
| 20260504232303 | 72 | 23 | 0.9 | 1.7 | 0.00 | 0.00 | 0.00 | 38 | 1010.3 |
| 20260504231758 | 71 | 23 | 5.2 | 6.1 | 0.00 | 0.00 | 0.00 | 38 | 1010.3 |
| 20260504231254 | 72 | 23 | 0.9 | 1.7 | 0.00 | 0.00 | 0.00 | 40 | 1010.2 |
| 20260504230750 | 72 | 23 | 0.9 | 0.9 | 0.00 | 0.00 | 0.00 | 40 | 1010.3 |
| 20260504230249 | 72 | 23 | 1.7 | 2.6 | 0.00 | 0.00 | 0.00 | 39 | 1010.1 |
| 20260504225747 | 73 | 23 | 3.5 | 3.5 | 0.00 | 0.00 | 0.00 | 37 | 1010.2 |
| 20260504225243 | 73 | 23 | 0.0 | 0.0 | 0.00 | 0.00 | 0.00 | 38 | 1010.2 |
| 20260504224740 | 73 | 23 | 0.9 | 0.9 | 0.00 | 0.00 | 0.00 | 36 | 1010.2 |
| 20260504224237 | 74 | 23 | 2.6 | 3.5 | 0.00 | 0.00 | 0.00 | 36 | 1010.1 |
| 20260504223733 | 73 | 23 | 0.0 | 0.9 | 0.00 | 0.00 | 0.00 | 36 | 1010.3 |
| 20260504223229 | 73 | 23 | 2.6 | 2.6 | 0.00 | 0.00 | 0.00 | 36 | 1010.2 |
| 20260504222727 | 74 | 23 | 3.5 | 5.2 | 0.00 | 0.00 | 0.00 | 35 | 1010.3 |
| 20260504222223 | 74 | 23 | 4.3 | 5.2 | 0.00 | 0.00 | 0.00 | 35 | 1010.2 |
| 20260504221721 | 75 | 23 | 1.7 | 2.6 | 0.00 | 0.00 | 0.00 | 34 | 1010.0 |
| 20260504221218 | 75 | 23 | 0.9 | 1.7 | 0.00 | 0.00 | 0.00 | 34 | 1010.0 |
| 20260504220714 | 74 | 23 | 0.9 | 1.7 | 0.00 | 0.00 | 0.00 | 35 | 1010.0 |
| 20260504220212 | 75 | 23 | 2.6 | 3.5 | 0.00 | 0.00 | 0.00 | 34 | 1010.1 |
| 20260504215709 | 76 | 23 | 0.9 | 1.7 | 0.00 | 0.00 | 0.00 | 33 | 1010.0 |
| 20260504215206 | 77 | 23 | 0.9 | 1.7 | 0.00 | 0.00 | 0.00 | 32 | 1010.0 |
| 20260504214701 | 77 | 22 | 0.0 | 0.0 | 0.00 | 0.00 | 0.00 | 31 | 1010.1 |